Location: Brown Observing Site
(43.4354°N, 116.3366°W)
Time: 05:47:21
(UTC-06:00)

Envisat - Pass Details

Date: 23 March 2019
Orbit: 764 x 766 km, 98.2° (Epoch: 24 April)

Event Time Altitude Azimuth Distance (km) Brightness Sun altitude
Rises 20:20:39 0° 167° (SSE) 3,218 6.0 -4.4°
Reaches altitude 10° 20:22:57 10° 168° (SSE) 2,296 5.3 -4.8°
Maximum altitude 20:28:01 82° 257° (WSW) 778 3.2 -5.7°
Drops below altitude 10° 20:33:08 10° 345° (NNW) 2,311 5.8 -6.6°
Sets 20:35:27 0° 347° (NNW) 3,242 6.6 -7.0°
